Location: Владивосток
(43.1151°N, 131.8856°E)
Time: 10:42:21
(UTC+10:00)

VELOX 1 - Pass Details

Date: 04 July 2022
Orbit: 624 x 639 km, 98.4° (Epoch: 08 August)

Event Time Altitude Azimuth Distance (km) Brightness Sun altitude
Rises 04:06:55 0° 109° (ESE) 2,928 ? -13.3°
Reaches altitude 10° 04:10:54 10° 72° (ENE) 2,030 ? -12.8°
Maximum altitude 04:11:56 11° 59° (ENE) 1,982 ? -12.7°
Drops below altitude 10° 04:12:58 10° 45° (NE) 2,035 ? -12.5°
Sets 04:16:59 0° 9° (N) 2,953 ? -12.1°
